Retour au catalogue

COSMOS 1285 DEB

ActifHEO
NORAD 13961·DEBRIS·🇷🇺 Russia

Lancé Aug 4, 1981 depuis Plesetsk Cosmodrome

Loading…

Prochains Passages (prochaines 24 heures)

TLE

FraisSource: Space-Track

Époque: Sep 10, 2026, 04:39 UTC

1 13961U 81071F   26253.19385913  .00000392  00000-0  00000+0 0  9997
2 13961  70.8466  73.2022 5483433 334.3905   6.3720  1.98119795323967

Suivez COSMOS 1285 DEB en temps réel avec AllMySat

Download on the App Store